Location: Beuerbach
(48.1459°N, 10.9174°E)
Time: 01:23:12
(UTC+00:00)

Meteor 1-21 - Pass Details

Date: 12 August 2024
Orbit: 845 x 885 km, 81.2° (Epoch: 09 September)

Event Time Altitude Azimuth Distance (km) Brightness Sun altitude
Rises 01:58:49 0° 332° (NNW) 3,418 7.7 -17.9°
Reaches altitude 10° 02:02:26 10° 309° (NW) 2,479 6.6 -17.5°
Maximum altitude 02:05:11 14° 279° (W) 2,206 6.1 -17.2°
Enters shadow 02:05:51 14° 271° (W) 2,223 6.0 -17.2°
